Regional Weather Roundup
Issued by NWS

Home | Current Version | Previous Version | Text Only | Print | Product List | Glossary Off
Versions: 1 2 3 4 5 6 7 8 9 10 11 12 13 14 15 16 17 18 19 20 21 22 23 24 25 26 27 28 29 30 31 32 33 34 35 36 37 38 39 40 41 42 43 44 45 46 47 48 49 50

000
ASUS45 KBOU 260107
RWRCO

WEATHER ROUNDUP FOR COLORADO
NATIONAL WEATHER SERVICE DENVER/BOULDER CO
600 PM MST SUN JAN 25 2015

NOTE: "FAIR" INDICATES FEW OR NO CLOUDS BELOW 12000 FEET WITH NO
SIGNIFICANT WEATHER AND/OR OBSTRUCTIONS TO VISIBILITY.

COZ001>005-013-030-031-260200-
...NORTHWEST COLORADO...

CITY           SKY/WX    TMP DP  RH WIND       PRES   REMARKS
CRAIG            N/A     29  24  82 SW3       30.37R
HAYDEN         CLEAR     34  25  69 NE6       30.38R WCI  29
MEEKER         CLEAR     26  20  77 NE3       30.36R
MOUNT WERNER   NOT AVBL
STEAMBOAT SPGS CLEAR     33  26  77 CALM      30.39R
WALDEN         CLEAR     32  23  69 SE5       30.36R WCI  27
$$

COZ006>008-011-260200-
...WEST CENTRAL VALLEYS...

CITY           SKY/WX    TMP DP  RH WIND       PRES   REMARKS
GRAND JUNCTION MOCLDY    35  24  64 NE7       30.33S WCI  29
MONTROSE       MOCLDY    39  19  44 S7        30.37R
EAGLE          CLEAR     39  28  65 VRB6      30.38R
RIFLE          PTCLDY    42  23  46 SW5       30.35R
DELTA          MOCLDY    39  19  45 E3        30.35R
NUCLA          MOCLDY    48  23  37 N3        30.34S
$$

COZ017>023-064>068-260200-
...SOUTHWEST COLORADO...

CITY           SKY/WX    TMP DP  RH WIND       PRES   REMARKS
DURANGO        PTCLDY    41  23  48 W5        30.28R
CORTEZ         CLEAR     41  24  51 SW5       30.27R
PAGOSA SPRINGS PTCLDY    33  22  63 CALM      30.30S
TELLURIDE      PTCLDY    38  23  53 CALM      30.40R
WOLF CREEK PAS NOT AVBL
$$

COZ009-010-012-014-032>034-037-058>063-260200-
...CENTRAL COLORADO...

CITY           SKY/WX    TMP DP  RH WIND       PRES   REMARKS
ASPEN          PTCLDY    34  24  67 SW6       30.38R WCI  29
BUENA VISTA    PTCLDY    42  21  43 NW18      30.29R
COPPER MTN     CLEAR     28  19  69 W21G26    30.46R WCI  15
BERTHOUD PASS  FAIR      19  12  73 NW26G37   30.42R WCI   1
COTTONWOOD PAS PTCLDY    41  14  33 N10G21    30.35S
GUNNISON       PTCLDY    18  10  73 CALM      30.41R
KREMMLING      CLEAR     32  27  80 CALM      30.40R
LEADVILLE      PTCLDY    29  18  63 NW12      30.38R WCI  19
MONARCH PASS   PTCLDY    25  19  80 W21       30.53R WCI  10
SALIDA         PTCLDY    46  21  37 W7        30.35R
SUNLIGHT       PTCLDY    32  25  74 NW5       30.46S WCI  27
WILKERSON PASS PTCLDY    30  14  51 N14G33    30.40R WCI  20
$$

COZ069>075-260200-
...SAN LUIS VALLEY/SANGRE DE CRISTO MOUNTAINS...

CITY           SKY/WX    TMP DP  RH WIND       PRES   REMARKS
ALAMOSA        PTCLDY    36  19  50 CALM      30.30R
LA VETA PASS   NOT AVBL
SAGUACHE       PTCLDY    36  23  60 S5        30.32R
$$

COZ035-036-038>040-260200-
...NORTHERN COLORADO FRONT RANGE...

CITY           SKY/WX    TMP DP  RH WIND       PRES   REMARKS
DENVER INTL AP PTCLDY    48  24  39 NE5       30.15R
DMNS CITY PARK   N/A     51  21  30 W8        30.15R
AURORA         PTCLDY    49  22  35 W5        30.17R
FRONT RANGE AP NOT AVBL
ERIE MUNI ARPT CLEAR     42  24  49 CALM      30.15R
BOULDER MUN AP CLEAR     54  23  30 W5        30.15R
CENTENNIAL     PTCLDY    50  21  32 NW9       30.17R
BROOMFIELD     PTCLDY    50  23  34 W15       30.17R
FORT COLLINS   CLEAR     46  25  42 SE6       30.16R
LONGMONT       CLEAR     46  23  40 W3        30.17R
$$

COZ041-046-047-076>085-087-088-260200-
...PIKES PEAK/PALMER DIVIDE AND SOUTHERN FOOTHILLS...

CITY           SKY/WX    TMP DP  RH WIND       PRES   REMARKS
COLO. SPRINGS  PTCLDY    45  25  45 CALM      30.22R
A. F. ACADEMY  PTCLDY    41  24  51 NW2       30.22R
ELLICOTT       PTCLDY   N/A N/A N/A W6        30.20R
FALCON         PTCLDY    37  25  63 W7        30.23R
FORT CARSON    PTCLDY    43  25  49 W6        30.19R
LIMON          CLEAR     35  26  69 W3        30.17R
MONUMENT HILL  CLEAR     36  27  69 W7        30.21R
TRINIDAD       CLEAR     45  27  49 S6        30.19R
$$

COZ042>045-048>051-090-091-260200-
...NORTHEAST COLORADO...

CITY           SKY/WX    TMP DP  RH WIND       PRES   REMARKS
GREELEY ARPT   CLEAR     41  25  52 E7        30.13R
AKRON          PTCLDY    37  30  75 W9        30.14R
BURLINGTON     CLEAR     43  32  65 NW5       30.14R
WRAY           PTCLDY    43  31  63 SW6       30.11S
STERLING       PTCLDY    43  34  70 NW10      30.11R
HOLYOKE        PTCLDY    37  30  75 SW3       30.10R
FORT MORGAN    PTCLDY    40  29  63 W5        30.15R
$$

COZ086-089-092>099-260200-
...SOUTHEAST COLORADO...

CITY           SKY/WX    TMP DP  RH WIND       PRES   REMARKS
PUEBLO         PTCLDY    44  30  57 E5        30.17R
LA JUNTA       CLEAR     48  30  49 S3        30.15R
LAMAR          CLEAR     40  30  67 SW8       30.13R
SPRINGFIELD      N/A     41  29  62 W7        30.16R
$$


USA.gov is the U.S. government's official web portal to all federal, state and local government web resources and services.